Weather in Barra do Garcas

Brazil     15°53′32″S   52°15′40″W
temp.,
°C
wind,
m/s
gust,
m/s
humid.,
%
clouds,
%
prec.,
mm/h
press.,
hPa
HPBL,
m
18 may, tue
tue1823:00+20sw115497 0.0 101511
02:00+20se2253100 0.0 101523
05:00+19ese225798 0.0 101513
08:00+24ese244865 0.0 1017251
11:00+30e3432100 0.0 10161426
14:00+32ene22271 0.0 10122871
17:00+27n223980 0.0 101223
20:00+23sw004621 0.0 101411
19 may, wed
wed1923:00+22ese114782 0.0 101411
02:00+19ese0155100 0.0 101311
05:00+18s11625 0.0 101411
08:00+24e11464 0.0 1016250
11:00+30ene22320 0.0 10141058
14:00+32ne33260 0.0 10112400
17:00+26e12385 0.0 101111
20:00+23sse114131 0.0 101211
20 may, thu
thu2023:00+21ese11459 0.0 101311
02:00+19ene11515 0.0 101311
05:00+18sse11565 0.0 101311
08:00+24e124350 0.0 1015243
11:00+31ne233312 0.0 1014904
14:00+32nne23305 0.0 10112580
17:00+27e22435 0.0 101024
20:00+24e11475 0.0 101211
21 may, fri
fri2123:00+22sse115262 0.0 101211
02:00+21ne1156100 0.0 101111
05:00+19ese116330 0.0 101211
08:00+26ene224762 0.0 1014266
11:00+32ne233382 0.0 10121069
14:00+33nne3331100 0.0 10092220
17:00+27ne224575 0.0 100921
20:00+24ene0052100 0.0 101111
22 may, sat
sat2223:00+23sw1154100 0.0 101111
02:00+22ene2255100 0.0 101016
05:00+21wsw1060100 0.0 101211
08:00+26ne124767 0.0 1013232
11:00+33nne343479 0.0 10121340
14:00+33nne333896 0.1 10091830
17:00+28wsw4752100 0.3 1010256
20:00+23ssw2388100 2.3 101277